Change the Weather History Date:

Wednesday, June 19, 2013

  Actual Average Record
Temperature  
Mean Temperature 76 °F 77 °F  
Max Temperature 86 °F 88 °F 105 °F (1990)
Min Temperature 66 °F 66 °F 49 °F (1976)
Degree Days  
Heating Degree Days 0 0  
Month to date heating degree days 3 3  
Since 1 June heating degree days 3 3  
Since 1 July heating degree days 4477 4591  
Cooling Degree Days 11 12  
Month to date cooling degree days 193 179  
Year to date cooling degree days 331 315  
Since 1 June cooling degree days 193 179  
Growing Degree Days 26 (Base 50)    
Moisture  
Dew Point 67 °F    
Average Humidity 79    
Maximum Humidity 100    
Minimum Humidity 58    
Precipitation  
Precipitation 0.13 in 0.17 in 2.47 in (1890)
Month to date precipitation 1.13 3.41  
Year to date precipitation 15.15 15.27  
Snow  
Snow 0.00 in 0.00 in 0.00 in (2007)
Month to date snowfall 0.0 0.0  
Since 1 June snowfall 0.0 0.0  
Since 1 July snowfall 30.0 14.9  
Snow Depth 0.00 in    
Sea Level Pressure  
Sea Level Pressure 29.94 in    
Wind  
Wind Speed 12 mph (SSE)    
Max Wind Speed 22 mph    
Max Gust Speed 28 mph    
Visibility 10 miles    
Events Rain , Thunderstorm    
T = Trace of Precipitation, MM = Missing Value Source: NWS Daily Summary

Daily Weather History Graph

Daily Weather History Graph

Search for Another Location

Airport or City:

Trip Planner

Search our weather history database for the weather conditions in past years. The results will help you decide how hot, cold, wet, or windy it might be!

Date:

Astronomy

Jun. 19, 2013 Rise Set
Actual Time 6:08 AM CDT 8:54 PM CDT
Civil Twilight 5:36 AM CDT 9:25 PM CDT
Nautical Twilight 4:57 AM CDT 10:04 PM CDT
Astronomical Twilight 4:13 AM CDT 10:48 PM CDT
Moon 4:51 PM CDT (6/19) 2:49 AM CDT (6/19)
Length of Visible Light 15h 48m
Length of Day
14h 46m
Waxing Gibbous, 80% of the Moon is Illuminated
Jun 19
Waxing Gibbous
Jun 23
Full
Jun 29
Last Quarter
Jul 8
New
Jul 15
First Quarter

Hourly Weather History & Observations

Time (CDT) Temp. Heat Index Dew Point Humidity Pressure Visibility Wind Dir Wind Speed Gust Speed Precip Events Conditions
12:05 AM 69.8 °F - 62.6 °F 78% 30.04 in 10.0 mi NW 16.1 mph 29.9 mph 0.00 in Rain , Thunderstorm Light Thunderstorms and Rain
12:53 AM 66.9 °F - 63.0 °F 87% 30.00 in 9.0 mi West 17.3 mph - 0.05 in Rain , Thunderstorm Light Thunderstorms and Rain
1:53 AM 66.9 °F - 64.9 °F 93% 29.99 in 8.0 mi SSE 9.2 mph - 0.06 in Rain , Thunderstorm Light Thunderstorms and Rain
2:17 AM 69.8 °F - 62.6 °F 78% 29.98 in 10.0 mi SSE 17.3 mph - 0.07 in Rain Light Rain
2:53 AM 70.0 °F - 66.0 °F 87% 29.92 in 10.0 mi South 10.4 mph - 0.07 in   Mostly Cloudy
3:53 AM 66.9 °F - 66.0 °F 97% 29.93 in 10.0 mi South 6.9 mph - N/A   Mostly Cloudy
4:53 AM 66.9 °F - 66.0 °F 97% 29.94 in 10.0 mi South 4.6 mph - N/A   Mostly Cloudy
5:53 AM 66.0 °F - 64.9 °F 96% 29.95 in 10.0 mi SSE 4.6 mph - N/A   Mostly Cloudy
6:53 AM 68.0 °F - 66.9 °F 96% 29.95 in 10.0 mi SE 4.6 mph - N/A   Mostly Cloudy
7:53 AM 71.1 °F - 68.0 °F 90% 29.96 in 10.0 mi SSE 8.1 mph - N/A   Mostly Cloudy
8:53 AM 73.9 °F - 70.0 °F 87% 29.96 in 10.0 mi SSE 9.2 mph - N/A   Scattered Clouds
9:53 AM 78.1 °F - 71.1 °F 79% 29.95 in 10.0 mi South 13.8 mph 19.6 mph N/A   Mostly Cloudy
10:53 AM 80.1 °F 82.9 °F 69.1 °F 69% 29.95 in 10.0 mi SSE 17.3 mph - N/A   Mostly Cloudy
11:53 AM 82.9 °F 87.0 °F 70.0 °F 65% 29.95 in 10.0 mi South 15.0 mph 21.9 mph N/A   Mostly Cloudy
12:53 PM 82.9 °F 86.5 °F 69.1 °F 63% 29.95 in 10.0 mi South 16.1 mph - N/A   Mostly Cloudy
1:53 PM 82.9 °F 85.8 °F 68.0 °F 60% 29.94 in 10.0 mi SSE 15.0 mph - N/A   Mostly Cloudy
2:53 PM 84.9 °F 88.2 °F 68.0 °F 57% 29.92 in 10.0 mi SE 16.1 mph - N/A   Mostly Cloudy
3:53 PM 84.9 °F 88.2 °F 68.0 °F 57% 29.91 in 10.0 mi SSE 17.3 mph 26.5 mph N/A   Scattered Clouds
4:53 PM 82.9 °F 85.0 °F 66.0 °F 56% 29.88 in 10.0 mi SSE 16.1 mph - N/A   Scattered Clouds
5:53 PM 84.0 °F 87.0 °F 68.0 °F 58% 29.87 in 10.0 mi SSE 17.3 mph 24.2 mph N/A   Scattered Clouds
6:53 PM 82.9 °F 85.4 °F 66.9 °F 58% 29.87 in 10.0 mi SE 18.4 mph - N/A   Scattered Clouds
7:53 PM 81.0 °F 83.0 °F 66.0 °F 60% 29.88 in 10.0 mi SE 18.4 mph - N/A   Mostly Cloudy
8:53 PM 80.1 °F 82.3 °F 66.9 °F 64% 29.88 in 10.0 mi SSE 11.5 mph - N/A   Scattered Clouds
9:53 PM 78.1 °F - 66.9 °F 68% 29.91 in 10.0 mi SSE 11.5 mph - N/A   Mostly Cloudy
10:53 PM 75.9 °F - 68.0 °F 76% 29.92 in 10.0 mi SSE 11.5 mph - N/A   Mostly Cloudy
11:53 PM 75.0 °F - 68.0 °F 79% 29.91 in 10.0 mi SSE 11.5 mph - N/A   Mostly Cloudy